STARLINK-32161 (60593 NORAD) Tracking and Keplerian Element Data

This shows tracking and keplerian element data for the satellite.

Feedback or suggestion? Click here.




ElementValue
Catalog60593
NameSTARLINK-32161
Epoch Orbit943
Epoch Day286.8432357
Epoch Year2024
RAAN169.7599
Inclination53.16
Eccentricity0.0001233
Argument of Perigee102.6992
Mean Anonmoly257.4151
Mean Motion15.39639005
Decay Rate9.14E-05
L11 60593U 24150L 24286.84323570 .00009140 00000+0 23805-3 0 9993
L22 60593 53.1600 169.7599 0001233 102.6992 257.4151 15.39639005 9436



Live tracking and technical data element details for STARLINK-32161 (NORAD 60593). STARLINK-32161 can be tracked NOW for your location showing map with azimuth and elevation plus other details from your city location.







IsCatalogInMostPopularTable: catalog: 60593, numindb: 9
Update: records affected: 1



GetName: 60593 STARLINK-32161

Hit Count: updated at: Wed, 04 Dec 2024 18:17:39 GMT